| time (UTC) | temp C | wind direction | speed KPH | gust KPH | rain 1hr cm | rain 24hr cm | rain mn cm | humidity % | barometer mb |
| 20260505215003 | 7 | 341 | 6.4 | 12.9 | 0.00 | 0.00 | 0.00 | 83 | 1014.6 |
| 20260505214008 | 7 | 337 | 6.4 | 12.9 | 0.00 | 0.00 | 0.00 | 83 | 1014.7 |
| 20260505213224 | 7 | 336 | 6.4 | 12.9 | 0.00 | 0.00 | 0.00 | 83 | 1014.7 |
| 20260505212223 | 7 | 337 | 6.4 | 11.3 | 0.00 | 0.00 | 0.00 | 82 | 1014.8 |
| 20260505211003 | 7 | 336 | 6.4 | 14.5 | 0.00 | 0.00 | 0.00 | 82 | 1014.6 |
| 20260505210008 | 7 | 339 | 8.0 | 14.5 | 0.00 | 0.00 | 0.00 | 82 | 1014.5 |
| 20260505205008 | 7 | 343 | 6.4 | 12.9 | 0.00 | 0.00 | 0.00 | 81 | 1014.5 |
| 20260505204003 | 7 | 339 | 6.4 | 12.9 | 0.00 | 0.00 | 0.00 | 82 | 1014.6 |
| 20260505203003 | 7 | 337 | 6.4 | 12.9 | 0.00 | 0.00 | 0.00 | 83 | 1014.6 |
| 20260505202008 | 7 | 339 | 6.4 | 14.5 | 0.00 | 0.00 | 0.00 | 83 | 1014.7 |
| 20260505201008 | 7 | 339 | 6.4 | 16.1 | 0.00 | 0.00 | 0.00 | 83 | 1014.6 |
| 20260505200222 | 8 | 341 | 6.4 | 14.5 | 0.00 | 0.00 | 0.00 | 83 | 1014.5 |
| 20260505195003 | 8 | 343 | 6.4 | 11.3 | 0.00 | 0.00 | 0.00 | 83 | 1014.4 |
| 20260505194008 | 8 | 340 | 6.4 | 11.3 | 0.00 | 0.00 | 0.00 | 82 | 1014.2 |
| 20260505193013 | 8 | 340 | 6.4 | 14.5 | 0.00 | 0.00 | 0.00 | 82 | 1014.3 |
| 20260505192003 | 8 | 338 | 6.4 | 12.9 | 0.00 | 0.00 | 0.00 | 82 | 1014.3 |
| 20260505191009 | 8 | 336 | 6.4 | 11.3 | 0.00 | 0.00 | 0.00 | 81 | 1014.3 |
| 20260505190222 | 8 | 342 | 6.4 | 12.9 | 0.00 | 0.00 | 0.00 | 80 | 1014.1 |
| 20260505185008 | 8 | 343 | 6.4 | 12.9 | 0.00 | 0.00 | 0.00 | 79 | 1014.2 |
| 20260505184003 | 8 | 338 | 6.4 | 12.9 | 0.00 | 0.00 | 0.00 | 78 | 1014.2 |
| 20260505183009 | 8 | 340 | 6.4 | 11.3 | 0.00 | 0.00 | 0.00 | 77 | 1014.1 |
| 20260505182008 | 8 | 342 | 6.4 | 11.3 | 0.00 | 0.00 | 0.00 | 78 | 1014.0 |
| 20260505181222 | 8 | 346 | 6.4 | 14.5 | 0.00 | 0.00 | 0.00 | 77 | 1014.0 |
| 20260505180218 | 8 | 345 | 6.4 | 14.5 | 0.00 | 0.00 | 0.00 | 77 | 1013.9 |
| 20260505175008 | 9 | 342 | 6.4 | 9.7 | 0.00 | 0.00 | 0.00 | 76 | 1014.0 |
| 20260505174003 | 9 | 337 | 6.4 | 14.5 | 0.00 | 0.00 | 0.00 | 77 | 1014.1 |
| 20260505173003 | 9 | 336 | 6.4 | 16.1 | 0.00 | 0.00 | 0.00 | 75 | 1014.1 |
| 20260505172008 | 9 | 336 | 6.4 | 12.9 | 0.00 | 0.00 | 0.00 | 77 | 1014.2 |
| 20260505171008 | 9 | 338 | 6.4 | 19.3 | 0.00 | 0.00 | 0.00 | 75 | 1014.3 |
| 20260505170008 | 9 | 338 | 6.4 | 16.1 | 0.00 | 0.00 | 0.00 | 75 | 1014.4 |
| 20260505165008 | 10 | 334 | 6.4 | 14.5 | 0.00 | 0.00 | 0.00 | 75 | 1014.3 |
| 20260505164008 | 9 | 334 | 6.4 | 14.5 | 0.00 | 0.00 | 0.00 | 74 | 1014.4 |
| 20260505163009 | 9 | 331 | 6.4 | 11.3 | 0.00 | 0.00 | 0.00 | 74 | 1014.3 |
| 20260505162008 | 9 | 340 | 6.4 | 12.9 | 0.00 | 0.00 | 0.00 | 71 | 1014.5 |
| 20260505161008 | 9 | 337 | 6.4 | 12.9 | 0.00 | 0.00 | 0.00 | 73 | 1014.3 |
| 20260505153003 | 10 | 329 | 6.4 | 14.5 | 0.00 | 0.00 | 0.00 | 73 | 1014.4 |
| 20260505152008 | 10 | 341 | 6.4 | 11.3 | 0.00 | 0.00 | 0.00 | 72 | 1014.4 |
| 20260505151008 | 10 | 337 | 6.4 | 14.5 | 0.00 | 0.00 | 0.00 | 74 | 1014.4 |
| 20260505125008 | 9 | 343 | 6.4 | 11.3 | 0.00 | 0.00 | 0.00 | 74 | 1014.8 |
| 20260505124008 | 10 | 340 | 6.4 | 14.5 | 0.00 | 0.00 | 0.00 | 74 | 1014.7 |
| 20260505123003 | 10 | 338 | 6.4 | 16.1 | 0.00 | 0.00 | 0.00 | 71 | 1014.8 |
| 20260505122008 | 10 | 337 | 6.4 | 14.5 | 0.00 | 0.00 | 0.00 | 72 | 1014.5 |
| 20260505121008 | 10 | 338 | 8.0 | 19.3 | 0.00 | 0.00 | 0.00 | 74 | 1014.6 |
| 20260505120008 | 10 | 338 | 6.4 | 12.9 | 0.00 | 0.00 | 0.00 | 75 | 1014.7 |
| 20260505115003 | 9 | 337 | 6.4 | 14.5 | 0.00 | 0.00 | 0.00 | 74 | 1014.6 |
| 20260505114217 | 8 | 341 | 6.4 | 14.5 | 0.00 | 0.00 | 0.00 | 74 | 1014.8 |
| 20260505113003 | 8 | 346 | 6.4 | 14.5 | 0.00 | 0.00 | 0.00 | 79 | 1014.8 |
| 20260505112003 | 8 | 332 | 6.4 | 14.5 | 0.00 | 0.00 | 0.00 | 79 | 1015.0 |
| 20260505111003 | 8 | 337 | 6.4 | 12.9 | 0.00 | 0.00 | 0.00 | 80 | 1014.9 |
| 20260505110223 | 8 | 338 | 6.4 | 16.1 | 0.00 | 0.00 | 0.00 | 78 | 1015.0 |
| 20260505102008 | 9 | 335 | 6.4 | 14.5 | 0.00 | 0.00 | 0.00 | 67 | 1015.2 |
| 20260505101003 | 9 | 335 | 6.4 | 12.9 | 0.00 | 0.00 | 0.00 | 70 | 1015.1 |
| 20260505100008 | 10 | 332 | 6.4 | 12.9 | 0.00 | 0.00 | 0.00 | 72 | 1015.0 |
| 20260505095008 | 10 | 334 | 6.4 | 14.5 | 0.00 | 0.00 | 0.00 | 69 | 1015.0 |
| 20260505094003 | 10 | 335 | 6.4 | 14.5 | 0.00 | 0.00 | 0.00 | 69 | 1015.0 |
| 20260505093008 | 9 | 341 | 6.4 | 12.9 | 0.00 | 0.00 | 0.00 | 72 | 1015.0 |
| 20260505092003 | 9 | 332 | 6.4 | 11.3 | 0.00 | 0.00 | 0.00 | 72 | 1015.0 |
| 20260505091008 | 8 | 336 | 6.4 | 11.3 | 0.00 | 0.00 | 0.00 | 75 | 1014.9 |
| 20260505090008 | 8 | 336 | 6.4 | 12.9 | 0.00 | 0.00 | 0.00 | 76 | 1015.1 |
| 20260505085008 | 9 | 325 | 6.4 | 12.9 | 0.00 | 0.00 | 0.00 | 73 | 1015.0 |
| 20260505084003 | 9 | 319 | 6.4 | 14.5 | 0.00 | 0.00 | 0.00 | 73 | 1014.9 |
| 20260505083008 | 8 | 332 | 8.0 | 22.5 | 0.00 | 0.00 | 0.00 | 77 | 1015.0 |
| 20260505082003 | 8 | 352 | 9.7 | 22.5 | 0.00 | 0.00 | 0.00 | 72 | 1015.1 |
| 20260505081222 | 8 | 341 | 16.1 | 25.7 | 0.00 | 0.00 | 0.00 | 74 | 1015.1 |
| 20260505080008 | 8 | 347 | 11.3 | 22.5 | 0.00 | 0.00 | 0.00 | 76 | 1015.3 |
| 20260505075003 | 8 | 306 | 9.7 | 20.9 | 0.00 | 0.00 | 0.00 | 76 | 1015.2 |
| 20260505074222 | 8 | 320 | 6.4 | 19.3 | 0.00 | 0.00 | 0.00 | 79 | 1015.3 |
| 20260505073009 | 7 | 274 | 4.8 | 14.5 | 0.00 | 0.00 | 0.00 | 79 | 1015.2 |
| 20260505072003 | 7 | 328 | 6.4 | 12.9 | 0.00 | 0.00 | 0.00 | 80 | 1015.5 |
| 20260505071222 | 7 | 335 | 6.4 | 14.5 | 0.00 | 0.00 | 0.00 | 81 | 1015.2 |
| 20260505070008 | 7 | 323 | 6.4 | 16.1 | 0.00 | 0.00 | 0.00 | 81 | 1015.2 |
| 20260505065003 | 7 | 330 | 4.8 | 16.1 | 0.00 | 0.00 | 0.00 | 81 | 1015.2 |
| 20260505064008 | 7 | 220 | 3.2 | 12.9 | 0.00 | 0.00 | 0.00 | 82 | 1015.1 |
| 20260505063009 | 6 | 327 | 3.2 | 11.3 | 0.00 | 0.00 | 0.00 | 81 | 1015.1 |
| 20260505062003 | 6 | 340 | 4.8 | 16.1 | 0.00 | 0.00 | 0.00 | 80 | 1015.0 |
| 20260505061003 | 6 | 328 | 9.7 | 22.5 | 0.00 | 0.00 | 0.00 | 79 | 1015.0 |
| 20260505060008 | 6 | 3 | 12.9 | 29.0 | 0.00 | 0.00 | 0.00 | 78 | 1015.0 |
| 20260505055003 | 6 | 346 | 16.1 | 27.4 | 0.00 | 0.00 | 0.00 | 77 | 1015.0 |
| 20260505054003 | 7 | 355 | 9.7 | 24.1 | 0.00 | 0.00 | 0.00 | 74 | 1014.9 |
| 20260505053217 | 7 | 344 | 9.7 | 32.2 | 0.00 | 0.00 | 0.00 | 73 | 1015.1 |
| 20260505052008 | 7 | 352 | 9.7 | 22.5 | 0.00 | 0.00 | 0.00 | 74 | 1014.9 |
| 20260505051008 | 7 | 348 | 8.0 | 17.7 | 0.00 | 0.00 | 0.00 | 74 | 1014.8 |
| 20260505041008 | 7 | 344 | 6.4 | 12.9 | 0.00 | 0.00 | 0.00 | 76 | 1014.7 |
| 20260505040008 | 7 | 342 | 6.4 | 16.1 | 0.00 | 0.00 | 0.00 | 78 | 1014.5 |
| 20260505035216 | 7 | 342 | 6.4 | 16.1 | 0.00 | 0.00 | 0.00 | 79 | 1014.5 |
| 20260505034008 | 7 | 336 | 6.4 | 12.9 | 0.00 | 0.00 | 0.00 | 80 | 1014.5 |
| 20260505033008 | 7 | 349 | 4.8 | 12.9 | 0.00 | 0.00 | 0.00 | 80 | 1014.8 |
| 20260505032218 | 7 | 340 | 3.2 | 8.0 | 0.00 | 0.00 | 0.00 | 80 | 1014.6 |
| 20260505031008 | 7 | 322 | 4.8 | 11.3 | 0.00 | 0.00 | 0.00 | 80 | 1015.0 |
| 20260505030008 | 7 | 329 | 3.2 | 9.7 | 0.00 | 0.00 | 0.00 | 81 | 1014.8 |
| 20260505025003 | 6 | 340 | 3.2 | 6.4 | 0.00 | 0.00 | 0.00 | 81 | 1014.9 |
| 20260505024003 | 6 | 343 | 1.6 | 4.8 | 0.00 | 0.00 | 0.00 | 82 | 1015.0 |
| 20260505023008 | 6 | 335 | 3.2 | 6.4 | 0.00 | 0.00 | 0.00 | 82 | 1015.1 |
| 20260505022003 | 7 | 345 | 1.6 | 4.8 | 0.00 | 0.00 | 0.00 | 82 | 1015.0 |
| 20260505021003 | 7 | 341 | 1.6 | 6.4 | 0.00 | 0.00 | 0.00 | 82 | 1015.2 |
| 20260505020008 | 7 | 333 | 3.2 | 8.0 | 0.00 | 0.00 | 0.00 | 82 | 1015.5 |
| 20260505015003 | 7 | 329 | 4.8 | 9.7 | 0.00 | 0.00 | 0.00 | 83 | 1015.3 |
| 20260505014008 | 6 | 334 | 4.8 | 11.3 | 0.00 | 0.00 | 0.00 | 82 | 1015.1 |
| 20260505013008 | 6 | 329 | 4.8 | 9.7 | 0.00 | 0.00 | 0.00 | 82 | 1015.3 |
| 20260505012003 | 6 | 331 | 4.8 | 12.9 | 0.00 | 0.00 | 0.00 | 79 | 1015.5 |
| 20260505011003 | 6 | 332 | 4.8 | 8.0 | 0.00 | 0.00 | 0.00 | 76 | 1015.6 |
| 20260505010008 | 7 | 341 | 4.8 | 9.7 | 0.00 | 0.00 | 0.00 | 74 | 1015.6 |
| 20260505005004 | 7 | 339 | 6.4 | 9.7 | 0.00 | 0.00 | 0.00 | 76 | 1015.7 |
| 20260505004008 | 7 | 341 | 6.4 | 9.7 | 0.00 | 0.00 | 0.00 | 78 | 1015.9 |
| 20260505003003 | 7 | 336 | 4.8 | 9.7 | 0.00 | 0.00 | 0.00 | 82 | 1015.8 |
| 20260505002003 | 7 | 337 | 6.4 | 9.7 | 0.00 | 0.00 | 0.00 | 82 | 1015.8 |
| 20260505001003 | 7 | 336 | 4.8 | 9.7 | 0.00 | 0.00 | 0.00 | 83 | 1015.9 |
| 20260505000008 | 7 | 341 | 6.4 | 16.1 | 0.00 | 0.00 | 0.00 | 82 | 1016.0 |
| 20260504235223 | 7 | 338 | 6.4 | 11.3 | 0.00 | 0.00 | 0.00 | 83 | 1016.2 |
| 20260504234223 | 7 | 335 | 6.4 | 11.3 | 0.00 | 0.00 | 0.00 | 83 | 1016.1 |
| 20260504233223 | 7 | 339 | 6.4 | 9.7 | 0.00 | 0.00 | 0.00 | 84 | 1016.0 |
| 20260504232217 | 7 | 340 | 6.4 | 11.3 | 0.00 | 0.00 | 0.00 | 85 | 1016.1 |
| 20260504231008 | 7 | 340 | 6.4 | 11.3 | 0.00 | 0.00 | 0.00 | 85 | 1016.0 |
| 20260504230003 | 7 | 344 | 6.4 | 11.3 | 0.00 | 0.00 | 0.00 | 88 | 1016.2 |
| 20260504225003 | 7 | 343 | 6.4 | 9.7 | 0.00 | 0.00 | 0.00 | 92 | 1016.2 |
| 20260504224008 | 7 | 343 | 6.4 | 12.9 | 0.00 | 0.00 | 0.00 | 92 | 1016.2 |
| 20260504223222 | 7 | 339 | 4.8 | 11.3 | 0.00 | 0.00 | 0.00 | 94 | 1016.3 |
| 20260504222008 | 7 | 337 | 4.8 | 9.7 | 0.00 | 0.00 | 0.00 | 96 | 1016.2 |
| 20260504221003 | 7 | 336 | 4.8 | 9.7 | 0.00 | 0.00 | 0.00 | 97 | 1016.3 |
| 20260504220008 | 7 | 337 | 4.8 | 11.3 | 0.00 | 0.00 | 0.00 | 97 | 1016.4 |